TimeEST,TemperatureF,Dew PointF,Humidity,Sea Level PressureIn,VisibilityMPH,Wind Direction,Wind SpeedMPH,Gust SpeedMPH,PrecipitationIn,Events,Conditions,WindDirDegrees,DateUTC
12:15 AM,44.6,42.8,93,29.38,10.0,SSE,5.8,-,N/A,,Overcast,160,2014-01-06 05:15:00
12:35 AM,46.4,42.8,87,29.37,10.0,South,9.2,-,0.01,,Overcast,180,2014-01-06 05:35:00
12:55 AM,46.4,42.8,87,29.36,10.0,South,9.2,17.3,0.02,,Overcast,180,2014-01-06 05:55:00
1:15 AM,46.4,42.8,87,29.34,10.0,South,12.7,16.1,0.02,,Overcast,180,2014-01-06 06:15:00
1:35 AM,46.4,42.8,87,29.35,10.0,South,15.0,24.2,0.03,,Mostly Cloudy,190,2014-01-06 06:35:00
1:55 AM,46.4,44.6,93,29.38,7.0,WSW,20.7,26.5,0.06,,Mostly Cloudy,250,2014-01-06 06:55:00
2:15 AM,42.8,37.4,81,29.41,10.0,WSW,25.3,31.1,0.03,,Mostly Cloudy,250,2014-01-06 07:15:00
2:35 AM,42.8,37.4,81,29.43,9.0,WSW,15.0,19.6,0.05,,Overcast,240,2014-01-06 07:35:00
2:55 AM,41.0,35.6,81,29.42,7.0,SW,21.9,36.8,0.07,,Overcast,230,2014-01-06 07:55:00
3:15 AM,39.2,35.6,87,29.43,10.0,SW,18.4,25.3,0.01,,Overcast,220,2014-01-06 08:15:00
3:35 AM,39.2,33.8,81,29.47,8.0,SW,23.0,31.1,0.03,,Overcast,230,2014-01-06 08:35:00
3:55 AM,32.0,28.4,87,29.51,1.0,West,18.4,34.5,0.05,,Overcast,260,2014-01-06 08:55:00
4:15 AM,30.2,26.6,86,29.52,1.2,West,12.7,24.2,N/A,,Overcast,260,2014-01-06 09:15:00
4:35 AM,30.2,26.6,86,29.55,1.5,West,13.8,20.7,N/A,,Overcast,260,2014-01-06 09:35:00
4:55 AM,30.2,26.6,86,29.58,4.0,West,15.0,33.4,N/A,,Overcast,270,2014-01-06 09:55:00
5:15 AM,28.4,24.8,86,29.61,10.0,West,16.1,28.8,N/A,,Overcast,270,2014-01-06 10:15:00
5:35 AM,26.6,21.2,80,29.63,10.0,West,16.1,24.2,N/A,,Overcast,270,2014-01-06 10:35:00
5:55 AM,26.6,21.2,80,29.65,10.0,West,16.1,24.2,N/A,,Overcast,270,2014-01-06 10:55:00
6:15 AM,24.8,19.4,80,29.68,8.0,West,11.5,20.7,N/A,,Overcast,270,2014-01-06 11:15:00
6:35 AM,24.8,19.4,80,29.69,4.0,West,15.0,25.3,N/A,,Overcast,260,2014-01-06 11:35:00
6:55 AM,24.8,19.4,80,29.70,5.0,West,15.0,24.2,N/A,,Overcast,260,2014-01-06 11:55:00
7:15 AM,23.0,17.6,80,29.72,3.0,West,16.1,23.0,N/A,,Overcast,270,2014-01-06 12:15:00
7:35 AM,23.0,17.6,80,29.72,5.0,West,12.7,18.4,N/A,,Overcast,260,2014-01-06 12:35:00
7:55 AM,21.2,15.8,80,29.73,2.5,WSW,16.1,24.2,N/A,,Overcast,250,2014-01-06 12:55:00
8:15 AM,21.2,15.8,80,29.74,5.0,West,12.7,18.4,N/A,,Overcast,260,2014-01-06 13:15:00
8:35 AM,21.2,14.0,74,29.76,4.0,West,13.8,24.2,N/A,,Overcast,270,2014-01-06 13:35:00
8:55 AM,19.4,14.0,80,29.77,4.0,West,11.5,20.7,N/A,,Mostly Cloudy,270,2014-01-06 13:55:00
9:15 AM,19.4,14.0,80,29.78,5.0,West,11.5,16.1,N/A,,Overcast,260,2014-01-06 14:15:00
9:35 AM,19.4,15.8,86,29.79,3.0,West,11.5,18.4,N/A,,Overcast,270,2014-01-06 14:35:00
9:55 AM,19.4,12.2,74,29.79,2.5,West,16.1,23.0,N/A,,Overcast,260,2014-01-06 14:55:00
10:15 AM,19.4,10.4,68,29.80,5.0,West,9.2,24.2,N/A,,Overcast,280,2014-01-06 15:15:00
10:35 AM,19.4,12.2,74,29.79,3.0,West,16.1,-,N/A,,Overcast,260,2014-01-06 15:35:00
10:55 AM,19.4,10.4,68,29.79,8.0,WSW,16.1,21.9,N/A,,Mostly Cloudy,250,2014-01-06 15:55:00
11:15 AM,19.4,10.4,68,29.79,10.0,West,13.8,23.0,N/A,,Mostly Cloudy,270,2014-01-06 16:15:00
11:35 AM,19.4,10.4,68,29.78,8.0,West,12.7,26.5,N/A,,Mostly Cloudy,260,2014-01-06 16:35:00
11:55 AM,17.6,10.4,73,29.78,1.8,West,16.1,23.0,N/A,,Overcast,270,2014-01-06 16:55:00
12:15 PM,17.6,8.6,68,29.78,3.0,WSW,17.3,26.5,N/A,,Overcast,250,2014-01-06 17:15:00
12:35 PM,15.8,8.6,73,29.79,1.8,West,19.6,25.3,N/A,,Overcast,260,2014-01-06 17:35:00
12:55 PM,14.0,6.8,73,29.79,3.0,West,19.6,31.1,N/A,,Overcast,260,2014-01-06 17:55:00
1:15 PM,12.2,5.0,73,29.79,1.8,West,18.4,25.3,N/A,,Overcast,260,2014-01-06 18:15:00
1:35 PM,12.2,3.2,67,29.80,1.0,West,13.8,18.4,N/A,,Overcast,260,2014-01-06 18:35:00
1:55 PM,10.4,3.2,73,29.80,2.0,West,11.5,29.9,N/A,,Overcast,260,2014-01-06 18:55:00
2:15 PM,8.6,1.4,73,29.81,1.2,West,13.8,19.6,N/A,,Overcast,260,2014-01-06 19:15:00
2:35 PM,8.6,1.4,73,29.81,2.0,West,16.1,27.6,N/A,,Overcast,270,2014-01-06 19:35:00
2:55 PM,6.8,-0.4,72,29.83,1.2,West,17.3,27.6,N/A,,Overcast,270,2014-01-06 19:55:00
3:15 PM,6.8,-4.0,61,29.85,3.0,WSW,15.0,27.6,N/A,,Mostly Cloudy,250,2014-01-06 20:15:00
3:35 PM,6.8,-5.8,56,29.88,3.0,West,20.7,32.2,N/A,,Scattered Clouds,260,2014-01-06 20:35:00
3:55 PM,3.2,-5.8,66,29.90,0.8,West,18.4,32.2,N/A,,Overcast,260,2014-01-06 20:55:00
4:15 PM,3.2,-9.4,56,29.92,5.0,West,13.8,20.7,N/A,,Overcast,270,2014-01-06 21:15:00
4:35 PM,1.4,-9.4,61,29.93,9.0,WSW,17.3,27.6,N/A,,Overcast,250,2014-01-06 21:35:00
4:55 PM,1.4,-11.2,56,29.94,6.0,WSW,19.6,27.6,N/A,,Overcast,240,2014-01-06 21:55:00
5:15 PM,-0.4,-13.0,55,29.95,10.0,West,12.7,27.6,N/A,,Overcast,260,2014-01-06 22:15:00
5:35 PM,-0.4,-14.8,51,29.97,10.0,WSW,16.1,23.0,N/A,,Mostly Cloudy,250,2014-01-06 22:35:00
5:55 PM,-0.4,-11.2,60,29.98,10.0,WSW,16.1,23.0,N/A,,Mostly Cloudy,240,2014-01-06 22:55:00
6:15 PM,-2.2,-14.8,55,29.99,10.0,WSW,16.1,21.9,N/A,,Partly Cloudy,250,2014-01-06 23:15:00
6:35 PM,-2.2,-14.8,55,30.00,10.0,West,18.4,29.9,N/A,,Scattered Clouds,260,2014-01-06 23:35:00
6:55 PM,-2.2,-13.0,60,30.00,4.0,WSW,18.4,24.2,N/A,,Mostly Cloudy,250,2014-01-06 23:55:00
7:15 PM,-2.2,-11.2,66,30.01,9.0,WSW,18.4,27.6,N/A,,Mostly Cloudy,250,2014-01-07 00:15:00
7:35 PM,-4.0,-14.8,60,30.02,10.0,WSW,13.8,31.1,N/A,,Scattered Clouds,250,2014-01-07 00:35:00
7:55 PM,-4.0,-14.8,60,30.03,10.0,SW,15.0,24.2,N/A,,Mostly Cloudy,230,2014-01-07 00:55:00
8:15 PM,-5.8,-16.6,60,30.04,10.0,WSW,16.1,23.0,N/A,,Scattered Clouds,250,2014-01-07 01:15:00
8:35 PM,-5.8,-16.6,60,30.05,10.0,WSW,13.8,27.6,N/A,,Clear,250,2014-01-07 01:35:00
8:55 PM,-5.8,-16.6,60,30.06,10.0,WSW,13.8,28.8,N/A,,Partly Cloudy,250,2014-01-07 01:55:00
9:15 PM,-5.8,-16.6,60,30.06,10.0,West,18.4,27.6,N/A,,Clear,260,2014-01-07 02:15:00
9:35 PM,-7.6,-18.4,59,30.07,10.0,WSW,23.0,31.1,N/A,,Clear,240,2014-01-07 02:35:00
9:55 PM,-7.6,-16.6,65,30.07,10.0,WSW,17.3,24.2,N/A,,Scattered Clouds,250,2014-01-07 02:55:00
10:15 PM,-7.6,-16.6,65,30.07,9.0,West,18.4,23.0,N/A,,Mostly Cloudy,260,2014-01-07 03:15:00
10:35 PM,-7.6,-16.6,65,30.07,6.0,WSW,11.5,25.3,N/A,,Overcast,250,2014-01-07 03:35:00
10:55 PM,-7.6,-14.8,71,30.08,6.0,WSW,11.5,19.6,N/A,,Overcast,240,2014-01-07 03:55:00
11:15 PM,-7.6,-16.6,65,30.09,10.0,WSW,16.1,24.2,N/A,,Overcast,250,2014-01-07 04:15:00
11:35 PM,-7.6,-18.4,59,30.09,10.0,West,13.8,26.5,N/A,,Overcast,260,2014-01-07 04:35:00
11:55 PM,-9.4,-20.2,59,30.09,10.0,WSW,23.0,29.9,N/A,,Scattered Clouds,250,2014-01-07 04:55:00